This demonstration page uses our WeatherBlox Daily Observations layout. Learn more.

Left ArrowRight Arrow

Hourly Observations for April 7, 2017

Temp ( °F °C ) Dew Point ( °F °C ) Humidity (%) Winds ( mph kmh ) Pressure ( in mb ) Visibility ( mi km ) Precip ( " mm )
12:53 am 00:53 Mostly Cloudy 51 10.6 45 7.2 80 80 SW 9 15 29.61 1003 10 16 0.00 0.00
1:53 am 01:53 Mostly Clear 49 9.4 43 6.1 80 80 SSW 12 19 29.60 1002 10 16 0.00 0.00
2:53 am 02:53 Clear 45 7.2 41 5 86 86 SW 9 15 29.60 1002 10 16 0.00 0.00
3:53 am 03:53 Clear 44 6.7 40 4.4 85 85 WSW 3 6 29.60 1002 10 16 0.00 0.00
4:53 am 04:53 Clear 40 4.4 38 3.3 93 93 SW 5 7 29.60 1002 10 16 0.00 0.00
5:53 am 05:53 Clear 41 5 39 3.9 93 93 Calm 29.57 1002 10 16 0.00 0.00
6:53 am 06:53 Sunny 35 1.7 34 1.1 96 96 E 3 6 29.57 1001 10 16 0.00 0.00
7:53 am 07:53 Sunny 44 6.7 41 5 89 89 E 5 7 29.55 1001 10 16 0.00 0.00
8:53 am 08:53 Sunny 47 8.3 41 5 80 80 ENE 8 13 29.52 1000 10 16 0.00 0.00
9:53 am 09:53 Sunny 53 11.7 42 5.6 66 66 ENE 10 17 29.46 998 10 16 0.00 0.00
10:53 am 10:53 Sunny 59 15 45 7.2 60 60 ENE 10 17 29.42 996 10 16 0.00 0.00
11:53 am 11:53 Mostly Cloudy 67 19.4 39 3.9 36 36 SE 5 7 29.38 995 10 16 0.00 0.00
12:53 pm 12:53 Sunny 67 19.4 40 4.4 37 37 W 3 6 29.37 995 10 16 0.00 0.00
1:53 pm 13:53 Sunny 74 23.3 33 0.6 22 22 SSW 25 41 29.36 994 10 16 0.00 0.00
2:53 pm 14:53 Mostly Sunny 74 23.3 34 1.1 23 23 SSW 36 57 29.36 994 10 16 0.00 0.00
3:53 pm 15:53 Mostly Cloudy 65 18.3 38 3.3 37 37 SW 35 56 29.43 997 10 16 0.00 0.00
4:27 pm 16:27 Cloudy with Light Rain 55 12.8 41 5 59 59 WSW 28 44 29.50 999 10 16 0.00 0.03
4:53 pm 16:53 Cloudy with Light Rain 52 11.1 42 5.6 69 69 WSW 26 43 29.57 1001 10 16 0.00 0.03
5:53 pm 17:53 Sunny 52 11.1 47 8.3 83 83 S 8 13 29.51 999 10 16 0.01 0.25
6:53 pm 18:53 Mostly Sunny 53 11.7 45 7.2 74 74 SW 9 15 29.53 1000 10 16 0.00 0.00
7:53 pm 19:53 Partly Cloudy 50 10 43 6.1 77 77 SW 10 17 29.52 1000 10 16 0.00 0.00
8:53 pm 20:53 Cloudy 50 10 43 6.1 77 77 SW 9 15 29.54 1001 10 16 0.00 0.00
9:53 pm 21:53 Clear 47 8.3 41 5 80 80 SW 12 19 29.56 1001 10 16 0.00 0.00
10:53 pm 22:53 Mostly Cloudy 47 8.3 35 1.7 63 63 SW 17 28 29.58 1002 10 16 0.00 0.00
11:53 pm 23:53 Clear 47 8.3 35 1.7 63 63 SW 17 28 29.57 1001 10 16 0.00 0.00

Powered by AerisWeather